HISPASAT 30W-6 (43228 NORAD) Tracking and Keplerian Element Data

This shows tracking and keplerian element data for the satellite.

Feedback or suggestion? Click here.




ElementValue
Catalog43228
NameHISPASAT 30W-6
Epoch Orbit774
Epoch Day93.45847552
Epoch Year2020
RAAN34.0532
Inclination0.0578
Eccentricity0.0005743
Argument of Perigee355.302
Mean Anonmoly296.9029
Mean Motion1.00271927
Decay Rate-2.23E-06
L11 43228U 18023A 20093.45847552 -.00000223 00000-0 00000-0 0 9995
L22 43228 0.0578 34.0532 0005743 355.3020 296.9029 1.00271927 7749

Live tracking and technical data element details for HISPASAT 30W-6 (NORAD 43228). HISPASAT 30W-6 can be tracked NOW for your location showing map with azimuth and elevation plus other details from your city location.

Track the satellite on the map from your city or location and see movement details for azimuth, elevation, latitude, longitude, range, height, and movement on the map or in text.







IsCatalogInMostPopularTable: catalog: 43228, numindb: 592
Update: records affected: 1



GetName: 43228 HISPASAT 30W-6

Hit Count: updated at: Thu, 09 Apr 2020 17:15:35 GMT